FW8040 Weather Reports


time (UTC)temp
C
wind
direction
speed
KPH
gust
KPH
rain 1hr
cm
rain 24hr
cm
rain mn
cm
humidity
%
barometer
mb
20260504215544 25 0 0.0 1.6 0.00 0.00 0.00 33 1012.4
20260504215042 26 0 0.0 1.6 0.00 0.00 0.00 32 1012.4
20260504214555 26 0 0.0 1.6 0.00 0.00 0.00 32 1012.4
20260504214039 26 219 0.0 1.6 0.00 0.00 0.00 33 1012.3
20260504213542 26 214 0.0 1.6 0.00 0.00 0.00 32 1012.4
20260504213056 26 216 0.0 1.6 0.00 0.00 0.00 32 1012.4
20260504212543 26 0 0.0 3.2 0.00 0.00 0.00 32 1012.5
20260504212043 26 0 0.0 3.2 0.00 0.00 0.00 32 1012.4
20260504211549 27 206 0.0 3.2 0.00 0.00 0.00 32 1012.4
20260504211043 27 0 0.0 1.6 0.00 0.00 0.00 30 1012.4
20260504210543 27 139 0.0 1.6 0.00 0.00 0.00 31 1012.4
20260504205543 27 0 0.0 1.6 0.00 0.00 0.00 31 1012.5
20260504205043 28 243 0.0 3.2 0.00 0.00 0.00 30 1012.5
20260504204610 27 6 0.0 3.2 0.00 0.00 0.00 30 1012.6
20260504204039 27 0 0.0 3.2 0.00 0.00 0.00 30 1012.6
20260504203539 27 246 0.0 3.2 0.00 0.00 0.00 30 1012.7
20260504203111 27 0 0.0 3.2 0.00 0.00 0.00 31 1012.7
20260504202542 27 0 0.0 1.6 0.00 0.00 0.00 31 1012.8
20260504202043 27 323 0.0 1.6 0.00 0.00 0.00 31 1012.8
20260504201551 27 0 0.0 1.6 0.00 0.00 0.00 31 1012.9
20260504201042 27 0 0.0 1.6 0.00 0.00 0.00 31 1013.0
20260504200542 27 230 0.0 1.6 0.00 0.00 0.00 30 1013.1
20260504200054 27 0 0.0 1.6 0.00 0.00 0.00 30 1013.1
20260504195541 27 0 0.0 3.2 0.00 0.00 0.00 32 1013.1
20260504195043 26 231 0.0 3.2 0.00 0.00 0.00 32 1013.2
20260504194547 26 252 0.0 3.2 0.00 0.00 0.00 31 1013.3
20260504194041 26 231 0.0 1.6 0.00 0.00 0.00 33 1013.4
20260504193543 26 0 0.0 3.2 0.00 0.00 0.00 33 1013.4
20260504193054 26 0 0.0 3.2 0.00 0.00 0.00 33 1013.5
20260504192543 26 0 0.0 4.8 0.00 0.00 0.00 33 1013.6
20260504192043 25 0 0.0 4.8 0.00 0.00 0.00 34 1013.5
20260504191554 25 231 0.0 3.2 0.00 0.00 0.00 34 1013.5
20260504191042 25 239 1.6 3.2 0.00 0.00 0.00 36 1013.6
20260504190542 25 319 0.0 1.6 0.00 0.00 0.00 35 1013.6
20260504190053 25 221 0.0 3.2 0.00 0.00 0.00 35 1013.7
20260504185543 25 237 0.0 3.2 0.00 0.00 0.00 36 1013.8
20260504185042 25 326 0.0 3.2 0.00 0.00 0.00 35 1013.7
20260504184547 25 233 0.0 3.2 0.00 0.00 0.00 36 1014.0
20260504184042 24 331 0.0 3.2 0.00 0.00 0.00 37 1014.1
20260504183544 23 0 0.0 3.2 0.00 0.00 0.00 36 1014.0
20260504183051 23 229 0.0 1.6 0.00 0.00 0.00 37 1014.0
20260504182540 23 0 0.0 3.2 0.00 0.00 0.00 36 1014.2
20260504182041 23 232 0.0 3.2 0.00 0.00 0.00 37 1014.2
20260504181548 23 224 0.0 1.6 0.00 0.00 0.00 38 1014.3
20260504181044 23 334 0.0 3.2 0.00 0.00 0.00 36 1014.2
20260504180543 23 316 0.0 3.2 0.00 0.00 0.00 37 1014.3
20260504180105 23 228 0.0 3.2 0.00 0.00 0.00 37 1014.2
20260504175542 23 224 0.0 3.2 0.00 0.00 0.00 38 1014.3
20260504175042 23 235 0.0 3.2 0.00 0.00 0.00 38 1014.4
20260504174548 23 0 0.0 3.2 0.00 0.00 0.00 38 1014.4
20260504174042 23 206 0.0 1.6 0.00 0.00 0.00 39 1014.4
20260504173542 23 236 0.0 1.6 0.00 0.00 0.00 39 1014.5
20260504173059 23 233 0.0 1.6 0.00 0.00 0.00 40 1014.6
20260504172616 22 0 0.0 3.2 0.00 0.00 0.00 39 1014.7
20260504172043 22 260 0.0 3.2 0.00 0.00 0.00 38 1014.9
20260504171545 22 234 0.0 3.2 0.00 0.00 0.00 41 1015.1
20260504171043 22 330 0.0 3.2 0.00 0.00 0.00 39 1015.1
20260504170544 22 0 0.0 3.2 0.00 0.00 0.00 38 1015.2
20260504151042 19 0 0.0 1.6 0.00 0.00 0.00 52 1015.8
20260504150540 18 242 0.0 1.6 0.00 0.00 0.00 56 1015.9
20260504141043 16 0 0.0 1.6 0.00 0.00 0.00 67 1016.3
20260504140547 16 0 0.0 1.6 0.00 0.00 0.00 68 1016.2
20260504130544 13 0 0.0 1.6 0.00 0.00 0.00 77 1016.5
20260504110543 7 0 0.0 0.0 0.00 0.00 0.00 87 1016.6
20260504100544 7 0 0.0 0.0 0.00 0.00 0.00 85 1016.1
20260504081550 8 0 0.0 0.0 0.00 0.00 0.00 79 1016.3
20260504081043 8 0 0.0 0.0 0.00 0.00 0.00 79 1016.3
20260504080546 8 0 0.0 0.0 0.00 0.00 0.00 79 1016.3
20260504050543 8 0 0.0 0.0 0.00 0.00 0.00 74 1016.4
20260504050106 8 0 0.0 0.0 0.00 0.00 0.00 74 1016.4
20260504045543 8 0 0.0 0.0 0.00 0.00 0.00 74 1016.4
20260504045043 8 0 0.0 0.0 0.00 0.00 0.00 74 1016.4
20260504044554 8 0 0.0 0.0 0.00 0.00 0.00 74 1016.4
20260504044043 8 0 0.0 0.0 0.00 0.00 0.00 73 1016.5
20260504043543 8 0 0.0 0.0 0.00 0.00 0.00 73 1016.6
20260504043058 8 0 0.0 0.0 0.00 0.00 0.00 73 1016.6
20260504042543 8 0 0.0 0.0 0.00 0.00 0.00 72 1016.6
20260504042043 8 0 0.0 0.0 0.00 0.00 0.00 72 1016.6
20260504041556 8 0 0.0 0.0 0.00 0.00 0.00 72 1016.6
20260504041042 9 0 0.0 0.0 0.00 0.00 0.00 71 1016.5
20260504040542 9 0 0.0 0.0 0.00 0.00 0.00 71 1016.5
20260504035543 9 0 0.0 0.0 0.00 0.00 0.00 71 1016.6
20260504035044 9 0 0.0 0.0 0.00 0.00 0.00 71 1016.6
20260504034559 9 0 0.0 0.0 0.00 0.00 0.00 70 1016.6
20260504034048 9 0 0.0 0.0 0.00 0.00 0.00 70 1016.6
20260504033543 9 0 0.0 0.0 0.00 0.00 0.00 69 1016.6
20260504033057 9 0 0.0 0.0 0.00 0.00 0.00 69 1016.5
20260504032543 9 0 0.0 0.0 0.00 0.00 0.00 68 1016.5
20260504032043 10 0 0.0 0.0 0.00 0.00 0.00 68 1016.5
20260504031552 10 0 0.0 0.0 0.00 0.00 0.00 68 1016.5
20260504031043 10 0 0.0 0.0 0.00 0.00 0.00 68 1016.5
20260504030542 10 0 0.0 0.0 0.00 0.00 0.00 68 1016.4
20260504030053 10 0 0.0 0.0 0.00 0.00 0.00 68 1016.4
20260504025543 10 0 0.0 0.0 0.00 0.00 0.00 67 1016.4
20260504025043 10 0 0.0 0.0 0.00 0.00 0.00 67 1016.4
20260504024554 10 0 0.0 0.0 0.00 0.00 0.00 67 1016.4
20260504024043 10 0 0.0 0.0 0.00 0.00 0.00 67 1016.4
20260504023543 10 0 0.0 0.0 0.00 0.00 0.00 66 1016.4
20260504023050 10 0 0.0 0.0 0.00 0.00 0.00 66 1016.4
20260504022544 10 0 0.0 0.0 0.00 0.00 0.00 65 1016.5
20260504022042 10 0 0.0 0.0 0.00 0.00 0.00 65 1016.5
20260504021553 10 0 0.0 0.0 0.00 0.00 0.00 64 1016.4
20260504021044 10 0 0.0 0.0 0.00 0.00 0.00 63 1016.4
20260504020545 10 0 0.0 0.0 0.00 0.00 0.00 64 1016.4
20260504020053 10 0 0.0 0.0 0.00 0.00 0.00 64 1016.4
20260504015544 10 0 0.0 0.0 0.00 0.00 0.00 64 1016.4
20260504015044 10 0 0.0 0.0 0.00 0.00 0.00 62 1016.4
20260504014553 11 0 0.0 0.0 0.00 0.00 0.00 61 1016.4
20260504014044 11 0 0.0 0.0 0.00 0.00 0.00 60 1016.4
20260504013543 11 0 0.0 0.0 0.00 0.00 0.00 60 1016.3
20260504013111 11 0 0.0 0.0 0.00 0.00 0.00 59 1016.2
20260504012543 11 0 0.0 0.0 0.00 0.00 0.00 58 1016.1
20260504012046 11 0 0.0 0.0 0.00 0.00 0.00 57 1016.1
20260504011549 11 0 0.0 0.0 0.00 0.00 0.00 56 1016.0
20260504011042 12 0 0.0 0.0 0.00 0.00 0.00 55 1015.9
20260504010542 12 0 0.0 0.0 0.00 0.00 0.00 53 1015.9
20260504010101 12 0 0.0 0.0 0.00 0.00 0.00 53 1015.8
20260504005546 12 0 0.0 0.0 0.00 0.00 0.00 53 1015.8
20260504005043 12 0 0.0 0.0 0.00 0.00 0.00 52 1015.8
20260504004552 12 0 0.0 0.0 0.00 0.00 0.00 50 1015.7
20260504004043 13 0 0.0 0.0 0.00 0.00 0.00 50 1015.7
20260504003544 13 0 0.0 0.0 0.00 0.00 0.00 49 1015.7
20260504003049 13 0 0.0 0.0 0.00 0.00 0.00 48 1015.6
20260504002545 13 0 0.0 0.0 0.00 0.00 0.00 48 1015.6
20260504002043 13 0 0.0 0.0 0.00 0.00 0.00 48 1015.6
20260504001549 14 0 0.0 0.0 0.00 0.00 0.00 48 1015.5
20260504001045 14 0 0.0 0.0 0.00 0.00 0.00 46 1015.5
20260504000543 15 0 0.0 0.0 0.00 0.00 0.00 45 1015.4
20260504000106 15 0 0.0 0.0 0.00 0.00 0.00 46 1015.3
20260503235545 15 0 0.0 0.0 0.00 0.00 0.00 45 1015.2
20260503235043 15 0 0.0 0.0 0.00 0.00 0.00 43 1015.3
20260503234548 16 0 0.0 0.0 0.00 0.00 0.00 42 1015.2
20260503234043 16 0 0.0 0.0 0.00 0.00 0.00 42 1015.3
20260503233544 16 0 0.0 0.0 0.00 0.00 0.00 41 1015.1
20260503233052 16 0 0.0 0.0 0.00 0.00 0.00 39 1015.2
20260503232543 17 0 0.0 1.6 0.00 0.00 0.00 39 1015.1
20260503232043 17 0 0.0 1.6 0.00 0.00 0.00 37 1015.2
20260503231552 17 0 0.0 0.0 0.00 0.00 0.00 36 1015.2
20260503231044 17 0 0.0 0.0 0.00 0.00 0.00 35 1015.1
20260503230544 17 0 0.0 0.0 0.00 0.00 0.00 35 1015.2
20260503230053 17 0 0.0 1.6 0.00 0.00 0.00 35 1015.2
20260503225543 17 0 0.0 1.6 0.00 0.00 0.00 33 1015.1
20260503225045 17 0 0.0 1.6 0.00 0.00 0.00 32 1015.1
20260503224559 17 0 0.0 1.6 0.00 0.00 0.00 35 1015.0
20260503224043 17 0 0.0 1.6 0.00 0.00 0.00 33 1015.1
20260503223609 18 0 0.0 1.6 0.00 0.00 0.00 32 1015.1
20260503223055 18 0 0.0 1.6 0.00 0.00 0.00 32 1015.2
20260503222544 18 293 0.0 1.6 0.00 0.00 0.00 33 1015.2
20260503222043 18 0 0.0 1.6 0.00 0.00 0.00 31 1015.1
20260503221601 18 0 0.0 1.6 0.00 0.00 0.00 31 1015.1
20260503221046 18 0 0.0 1.6 0.00 0.00 0.00 32 1015.1
20260503220543 18 0 0.0 1.6 0.00 0.00 0.00 32 1015.1
20260503220054 18 0 0.0 1.6 0.00 0.00 0.00 33 1015.1